Regional Weather Roundup
Issued by NWS

Home | Current Version | Previous Version | Graphics & Text | Print | Product List | Glossary On
Versions: 1 2 3 4 5 6 7 8 9 10 11 12 13 14 15 16 17 18 19 20 21 22 23 24 25 26 27 28 29 30 31 32 33 34 35 36 37 38 39 40 41 42 43 44 45 46 47 48 49 50
000
ASUS43 KLOT 171106
RWRIL

ILLINOIS REGIONAL WEATHER ROUNDUP
NATIONAL WEATHER SERVICE CHICAGO/ROMEOVILLE IL
600 AM CDT THU APR 17 2014

NOTE: "FAIR" INDICATES FEW OR NO CLOUDS BELOW 12,000 FEET WITH NO
SIGNIFICANT WEATHER AND/OR OBSTRUCTIONS TO VISIBILITY.

* THESE STATIONS ARE NOT UNDER NWS QUALITY CONTROL. THEY ALSO MAY NOT
  REPORT WEATHER SUCH AS PRECIPITATION OR FOG.

ILZ001-002-007-009-015-016-024-171200-
NORTHWEST ILLINOIS

CITY           SKY/WX    TMP DP  RH WIND       PRES   REMARKS
MOLINE         CLOUDY    44  36  73 W12       30.08R
STERLING*      CLOUDY    43  30  61 SW5       30.07R
SAVANNA*       CLOUDY    46  34  63 SW13      30.05R
$$

ILZ003-004-008-010-011-017-018-171200-
NORTH CENTRAL ILLINOIS

CITY           SKY/WX    TMP DP  RH WIND       PRES   REMARKS
ROCKFORD       CLOUDY    40  29  64 S13       30.08R
FREEPORT*      MOCLDY    39  33  78 S14       30.04R WCI  31
ROCHELLE*      PTCLDY    38  31  75 S12       30.07R WCI  30
DE KALB*       FAIR      37  29  72 S15       30.09R WCI  28
PERU*          PTCLDY    40  32  74 S12       30.10R
$$

ILZ005-006-012>014-019>023-171200-
NORTHEAST ILLINOIS

CITY           SKY/WX    TMP DP  RH WIND       PRES   REMARKS
CHICAGO-OHARE  MOCLDY    42  25  50 S14       30.11S
CHICAGO-MIDWAY MOCLDY    43  26  51 S14       30.13F
AURORA         PTCLDY    41  28  60 S17       30.10S
LANSING*       MOCLDY    38  26  60 S12       30.16S WCI  31
WAUKEGAN       CLOUDY    42  29  59 SE9       30.10S
DUPAGE AIRPORT CLOUDY    40  27  59 S12       30.10R
KANKAKEE*      PTCLDY    37  28  70 SE8       30.16S WCI  31
WHEELING       CLOUDY    44  26  49 S15       30.12F
MORRIS*        MOCLDY    41  26  56 S10       30.12R
ROMEOVILLE*    CLOUDY    39  27  63 S15       30.12S WCI  30
NORTHERLY ISL    N/A     42  27  55 S13         N/A
$$

LMZ740>746-171200-
SOUTHERN LAKE MICHIGAN

STATION/POSITION SKY/WX   TEMP    WIND        PRES    VSBY  WAVE
                          AIR SEA DIR/SP/G                  HT/PER
                          (F)     (DEG/KT/KT) (MB)    (MI)  (FT/S)
WAUKEGAN HARBOR            42     160/ 19/ 21 1020.3S
HARRISON CRIB              42     170/ 26/ 30   N/A
BURNHAM HARBOR             42     160/ 11/ 16   N/A
CALUMET HARBOR             42     160/ 12/ 20 1021.2F
MICHIGAN CITY              41     130/ 13/ 17   N/A
$$

ILZ025>027-034>036-040-047-049-050-058-095>099-171200-
WEST-CENTRAL ILLINOIS

CITY           SKY/WX    TMP DP  RH WIND       PRES   REMARKS
QUINCY         PTCLDY    44  30  57 W7        30.13R
GALESBURG*     MOCLDY    41  32  70 SW7       30.11R
MACOMB*        PTCLDY    41  31  68 SW8       30.13R
JACKSONVILLE*  CLEAR     44  31  59 S10       30.14R
PITTSFIELD*    CLEAR     46  31  56 SW9       30.14R
$$

ILZ028>032-037-038-041>044-048-051>054-059>061-171200-
CENTRAL ILLINOIS

CITY           SKY/WX    TMP DP  RH WIND       PRES   REMARKS
PONTIAC        PTCLDY    41  30  65 S14       30.12S
BLOOMINGTON    CLEAR     37  29  73 S15       30.13S WCI  28
DECATUR        PTCLDY    40  30  67 S12       30.16S
PEORIA         CLEAR     40  31  70 S9        30.12R
LACON*         PTCLDY    43  31  62 S8        30.10R
LINCOLN*       CLEAR     40  32  73 S9        30.14R
SPRINGFIELD    CLEAR     44  30  57 S15       30.14R
TAYLORVILLE    PTCLDY    41  32  70 S10       30.15S
$$

ILZ033-039-045-046-055>057-062-063-171200-
EAST-CENTRAL ILLINOIS

CITY           SKY/WX    TMP DP  RH WIND       PRES   REMARKS
CHAMPAIGN      CLEAR     39  29  67 S13       30.17S WCI  31
RANTOUL*       CLEAR     36  29  76 CALM      30.18R
MATTOON        PTCLDY    41  29  62 S9        30.18S
PARIS*         MOCLDY    36  30  80 SE7       30.20F WCI  30
$$

ILZ079-100>102-171200-
SOUTHWEST ILLINOIS

CITY           SKY/WX    TMP DP  RH WIND       PRES   REMARKS
ALTON          CLEAR     35  32  89 CALM      30.17R
BELLEVILLE     CLEAR     37  32  84 S6        30.18R WCI  32
CAHOKIA*       PTCLDY    40  32  73 S6        30.17S
SPARTA*        CLEAR     37  32  81 SE5       30.21R WCI  34
$$

ILZ064>066-069>071-074>076-080>082-084>086-088>090-092>094-171200-
SOUTH-CENTRAL ILLINOIS

CITY           SKY/WX    TMP DP  RH WIND       PRES   REMARKS
CARBONDALE     CLEAR     34  30  85 CALM      30.22R
CAIRO*         CLEAR     41  34  74 CALM      30.23R
MARION         CLEAR     39  32  75 S3        30.22R
MT. VERNON     CLEAR     28  19  69 CALM      30.22R
CENTRALIA*       N/A     37  31  77 SE6       30.20S WCI  32
SALEM*         CLEAR     39  32  75 SE5       30.21R
METROPOLIS*    CLEAR     36  34  92 CALM      30.23R
$$

ILZ067-068-072-073-078-083-087-091-171200-
SOUTHEAST ILLINOIS

CITY           SKY/WX    TMP DP  RH WIND       PRES   REMARKS
FAIRFIELD*     CLEAR     37  34  87 CALM      30.23R
HARRISBURG*    CLEAR     39  33  78 CALM      30.24R
ROBINSON*      CLEAR     40  31  71 S5        30.24R
CARMI*         CLEAR     41  35  81 CALM      30.23R
$$

ABBREVIATIONS USED IN REMARKS
   TC - TEMPERATURE IN CELSIUS
  WCI - WIND CHILL INDEX
   HX - HEAT INDEX
  VSB - VISIBILITY
$$




USA.gov is the U.S. government's official web portal to all federal, state and local government web resources and services.